World > North America > United States > Kansas

Argonia, Kansas Regional Weather

Lat: 37.27N, Lon: 97.76W
Wx Zone: KSZ092Web Search
Argonia Weather Warning NWS WEATHER ALERT FOR THE ARGONIA, KS AREA - Issued: 317 PM CDT Sat May 8 2021 Argonia Weather Warning  

Helpful Tip: Type the letters wx in the search engine next time you need to find us.

Feedback


°F Click to change Argonia hourly weather to Imperial units.Click to change Argonia hourly weather to Metric units. °C
Argonia Weather Map
UTC Time: 5/9/2021, 07:31
Your Time:

Argonia, KS Regional Weather

Expires:202105090800;;825511
ASUS43 KTOP 090708
RWRKS 

WEATHER ROUNDUP FOR KANSAS
NATIONAL WEATHER SERVICE GOODLAND KS
200 AM CDT SUN MAY 09 2021

NOTE:  "FAIR" INDICATES FEW OR NO CLOUDS BELOW 12,000 FEET WITH NO
SIGNIFICANT WEATHER AND/OR OBSTRUCTIONS TO VISIBILITY.


KSZ066>073-081>083-090>101-090800-
SOUTHEAST KANSAS
  
CITY           SKY/WX    TMP DP  RH WIND       PRES   REMARKS
CHANUTE        PTCLDY    74  65  73 S18G26    29.52S                  
COFFEYVILLE    PTCLDY    75  65  70 S17G33    29.51F                  
HUTCHINSON     CLOUDY    53  45  74 N22G43    29.66R                  
MEDICINE LODGE   N/A     53  45  74 N28G40    29.68R                  
NEWTON         CLOUDY    55  52  88 N24G33    29.62R                  
PARSONS        PTCLDY    74  66  76 S12G18    29.54S                  
WICHITA INTL   CLOUDY    61  54  77 N35G45    29.59R                  
WICHITA JABRA  CLOUDY    62  54  74 NW24G39   29.59R                  
WICHITA MCCONL CLOUDY    67  57  68 N29G45    29.57R                  
WINFIELD       MOCLDY    75  65  70 SW10      29.55R                  
$$


SKY/WX - Weather  TMP - Temperature  DP - Dew Point  RH - Relative Humidity
WIND - Wind Direction/Speed PRES - Barometric Pressure VSB - Visibility
WCI - Wind Chill Index E13G22 Wind - East Wind 13 mph/Gusts of 22 mph